Regional Weather Roundup
Issued by NWS Goodland, KS

Home | Current Version | Previous Version | Text Only | Print | Product List | Glossary Off
Versions: 1 2 3 4 5 6 7 8 9 10 11 12 13 14 15 16 17 18 19 20 21 22 23 24 25 26 27 28 29 30 31 32 33 34 35 36 37 38 39 40 41 42 43 44 45 46 47 48 49 50

000
ASUS43 KGLD 212308
RWRGLD

GOODLAND FORECAST AREA HOURLY WEATHER ROUNDUP
NATIONAL WEATHER SERVICE GOODLAND KS
500 PM MDT THU SEP 21 2017

...OFFICIAL OBSERVATIONS...

CITY           SKY/WX    TMP DP  RH WIND       PRES   REMARKS
GOODLAND KS    SUNNY     92  34  13 S26G33    29.66F
HILL CITY KS   SUNNY     99  40  13 S21G35    29.65F
IMPERIAL NEB   SUNNY     95  23   7 S21G30    29.62R
MCCOOK NEB     LGT RAIN  97  38  13 S23G32    29.62S
AKRON CO       SUNNY     90  19   7 S16G26    29.68S
BURLINGTON CO  SUNNY     92  29  10 S23G35    29.70S
LIMON CO       SUNNY     86  22   9 S18       29.74F
$$

...UNOFFICIAL OBSERVATIONS...

CITY           SKY/WX    TMP DP  RH WIND       PRES   REMARKS
NORTON KS      SUNNY     95  23   7 S23G31    29.64R
SHARON SPRINGS   N/A     92  36  13 S21G33      N/A
KIT CARSON CO    N/A     93  35  13 MISG        N/A
YUMA CO        FAIR      88  28  11 S12       29.65S
$$



USA.gov is the U.S. government's official web portal to all federal, state and local government web resources and services.